Terminal Aerodrome Forecast
Issued by NWS La Crosse, WI

Home | Current Version | Previous Version | Text Only | Print | Product List | Glossary On
Versions: 1 2 3 4 5 6 7 8 9 10 11 12 13 14 15 16 17 18 19 20 21 22 23 24 25 26 27 28 29 30 31 32 33
000
FTUS43 KARX 060526
TAFLSE
TAF
KLSE 060526Z 0606/0706 16006KT P6SM SKC
     FM060900 17009KT P6SM FEW200 WS018/24042KT
     FM061400 18010KT P6SM SCT200
     FM062100 24009KT P6SM SCT150
     FM070300 22004KT P6SM BKN100=

USA.gov is the U.S. government's official web portal to all federal, state and local government web resources and services.